RH
14 27 85 90 92 94 93 89 88 87 87 89 89 89 90 88 89 89 87 86 84 79 74 74 76 76 76 78 82 82 83 83 82 78 74 74 75 77 76 77 77 47 77
15 26 86 90 92 93 93 91 89 89 89 88 88 89 90 90 91 89 87 85 82 75 73 75 76 76 78 81 84 84 82 83 83 79 74 73 73 73 72 75 79 64 77
18 25 51 91 92 93 92 91 91 90 89 88 88 89 89 90 90 89 88 86 82 76 74 75 76 76 79 82 82 80 79 79 77 76 76 36 41 70 71 74 73 72 73
20 25 32 92 92 93 93 92 91 90 90 88 87 88 88 89 89 88 88 88 84 78 77 76 74 74 78 83 84 83 81 77 74 72 48 30 32 73 71 73 71 70 70
21 22 28 90 92 93 93 92 91 90 90 89 87 87 87 88 87 88 89 89 86 80 76 77 75 76 84 87 90 85 80 78 78 70 36 35 34 63 72 72 71 70 69
22 21 64 90 91 91 92 91 91 91 90 89 88 87 87 86 86 88 90 90 87 83 79 78 81 86 87 86 88 86 81 77 80 39 34 41 40 75 74 74 73 75 72
24 24 48 89 91 90 90 91 90 91 90 89 88 87 87 87 88 90 91 91 89 86 83 82 85 89 87 87 87 85 83 80 52 32 32 30 44 77 75 76 75 75 75
28 29 42 79 90 90 89 90 91 91 91 90 90 90 88 88 89 92 92 91 92 90 88 87 89 87 86 86 85 84 83 83 46 31 28 28 78 77 74 77 83 83 79
28 33 48 52 66 93 92 92 92 91 91 91 91 91 91 91 91 92 92 91 92 92 91 91 91 88 86 86 86 85 85 85 51 30 24 24 79 73 74 81 84 85 84
28 33 40 50 45 51 54 92 94 92 92 91 91 92 92 93 92 92 92 91 92 92 92 93 92 91 90 89 88 88 88 86 50 31 25 24 74 63 62 76 86 88 86
28 32 37 40 41 45 42 50 91 94 93 93 88 91 90 55 52 57 68 78 90 92 93 93 93 94 94 92 91 90 90 47 33 28 26 71 72 62 61 72 86 89 89
27 28 30 36 37 41 32 41 55 49 54 56 53 53 59 54 44 39 52 79 87 89 90 91 92 93 93 48 47 85 55 38 30 26 23 74 73 65 64 73 80 88 90
19 23 24 40 44 40 35 30 36 41 44 46 55 53 50 46 46 38 38 48 55 80 55 66 64 61 53 43 32 38 43 40 30 25 30 76 76 70 65 73 77 80 88
12 18 22 25 45 49 34 32 31 35 38 42 44 59 54 50 50 48 38 37 48 41 50 41 42 48 51 47 43 40 38 34 27 27 30 77 79 75 69 72 76 79 80
12 14 19 26 42 47 54 37 37 37 36 38 41 52 51 49 54 47 46 40 36 37 37 42 40 38 43 44 42 41 42 42 42 32 29 74 78 78 75 71 74 78 80
15 16 18 23 37 44 52 56 44 43 38 39 38 42 58 54 54 47 50 43 39 35 34 36 38 35 36 38 42 41 40 41 41 42 33 34 77 78 77 77 78 78 78
11 16 20 26 36 47 54 54 51 40 41 38 40 50 52 60 58 54 48 48 42 41 44 42 41 38 36 34 36 35 36 43 41 42 38 37 38 82 82 83 83 83 81
10 14 19 20 28 45 51 50 46 43 44 43 41 44 54 56 59 59 50 48 45 45 42 44 42 40 39 38 39 36 36 39 44 45 40 40 36 33 65 85 85 85 84
16 24 21 25 28 38 48 47 52 54 48 45 44 43 51 54 57 59 52 49 55 47 47 46 46 46 42 41 38 39 40 38 40 35 41 44 47 44 41 66 85 87 87
22 26 31 33 37 40 40 49 47 47 49 48 48 45 49 49 56 61 54 56 54 50 50 50 58 52 46 44 37 38 44 47 47 48 46 43 45 51 50 51 53 64 90
33 37 39 42 47 42 32 41 50 53 50 48 47 51 52 51 58 62 59 56 58 56 58 64 63 68 60 57 55 59 54 56 62 56 55 48 48 48 52 53 54 51 49
34 43 43 44 48 51 44 34 36 47 45 47 48 51 53 54 56 58 63 58 62 60 67 67 69 67 68 65 63 71 78 66 63 63 60 57 58 48 46 49 54 55 57
30 37 45 47 51 54 57 51 42 39 49 49 50 50 49 53 57 60 65 62 65 66 68 72 72 72 68 66 72 75 86 78 57 70 79 73 67 55 56 59 61 67 72
27 31 38 49 53 56 63 62 62 54 47 45 50 44 44 52 57 62 66 68 68 66 69 71 70 72 71 69 84 79 80 78 80 93 87 68 65 61 62 55 55 70 69
21 27 35 46 53 64 72 76 69 66 61 52 48 51 53 53 58 60 70 72 72 71 72 71 73 78 73 72 84 94 92 93 90 93 89 65 58 49 47 49 63 72 67
17 26 34 42 54 68 80 83 86 84 69 64 62 55 59 76 71 66 70 77 77 79 75 71 75 84 86 84 86 92 93 94 96 92 91 83 73 59 52 51 50 45 47
Wind_Speed
13 19 17 12 11 12 10 10 10 11 11 12 13 12 12 11 10 10 9 9 9 11 12 12 12 12 12 12 11 11 11 10 9 10 11 11 10 8 6 8 11 11 9
17 20 16 13 12 13 13 12 11 11 13 14 13 13 13 13 11 10 9 10 10 11 11 11 11 11 11 11 11 10 10 8 6 7 10 13 10 7 6 8 14 11 10
18 20 19 13 13 13 15 15 14 14 13 14 14 13 13 14 13 12 11 10 9 11 12 12 12 12 12 11 11 10 8 6 4 6 11 4 11 7 6 6 8 7 7
18 19 20 15 15 15 16 17 17 17 16 16 14 14 13 13 13 13 12 11 11 12 12 12 12 12 12 12 12 11 9 7 4 8 9 5 11 9 6 5 5 4 4
17 19 19 19 16 15 15 17 19 18 17 15 15 14 13 12 13 12 12 11 12 13 13 12 12 12 11 10 9 7 6 5 7 10 4 3 4 11 8 6 7 6 3
17 17 19 20 17 15 16 16 17 17 17 16 15 15 15 14 13 12 11 11 12 12 13 14 12 10 10 10 9 7 6 6 7 13 6 8 7 15 10 7 3 5 4
16 16 18 18 18 19 17 16 15 15 15 15 15 14 14 14 13 12 11 10 10 12 12 11 11 10 10 9 8 7 7 7 10 13 6 7 9 14 12 10 8 7 7
15 15 15 16 15 17 18 18 15 14 13 13 14 13 13 12 11 11 11 11 10 9 9 9 9 9 9 9 8 8 8 7 10 11 7 6 16 13 11 11 10 10 9
16 15 14 17 17 12 12 13 14 14 14 13 12 12 11 11 12 11 11 10 10 10 10 10 10 10 9 9 9 9 8 8 10 11 8 7 15 13 11 12 12 12 11
16 17 15 16 18 17 17 13 12 13 13 14 14 12 11 10 10 10 11 11 11 10 9 8 10 9 10 10 10 10 10 9 12 13 10 5 14 12 11 13 13 14 14
14 17 17 18 18 18 18 16 12 12 12 11 12 12 11 12 14 15 14 11 14 11 11 10 10 10 10 10 11 11 10 9 13 10 9 14 14 11 10 11 14 15 16
18 18 18 18 19 18 15 16 17 16 14 14 15 15 13 14 13 14 15 16 15 14 12 12 12 10 10 11 10 15 9 12 11 11 9 14 13 12 13 14 14 16 17
19 17 19 17 15 18 16 13 10 10 10 11 16 15 14 12 11 11 8 10 11 13 11 12 12 11 13 11 11 10 13 12 10 9 11 15 14 15 16 16 17 18 19
16 21 21 20 16 15 12 12 12 12 12 11 14 16 12 10 11 10 9 11 11 10 13 13 10 12 14 13 13 12 9 9 8 8 10 15 15 16 18 19 20 20 20
15 14 18 19 17 15 15 12 12 12 12 13 13 16 13 12 11 11 10 10 10 11 11 11 11 11 13 13 12 12 12 11 12 9 8 16 16 17 19 22 23 23 22
11 16 12 15 15 17 15 17 11 11 12 13 12 13 19 13 11 11 10 11 10 10 10 10 11 11 11 11 12 14 14 12 12 12 11 12 18 20 22 21 21 21 21
12 10 12 13 13 16 17 15 14 11 13 12 12 14 16 17 15 13 11 11 11 10 10 9 10 10 10 11 14 12 12 13 13 14 12 11 12 20 16 19 20 21 21
17 14 8 11 16 15 15 14 13 14 12 13 12 12 17 17 19 14 11 11 11 10 10 9 9 10 11 11 10 11 11 12 13 14 14 12 12 11 16 19 21 23 22
17 15 18 12 12 14 14 14 14 15 12 13 13 13 18 19 18 15 13 11 12 9 9 9 9 10 10 11 11 11 11 12 12 12 15 14 13 12 10 11 21 17 20
15 14 15 13 15 14 11 11 12 12 13 12 13 14 17 16 20 17 13 14 12 11 11 10 9 8 10 10 11 11 9 9 10 11 11 12 13 13 12 13 9 10 20
17 16 15 14 14 12 11 10 11 12 12 13 14 18 18 15 18 18 14 14 14 14 14 11 12 9 8 7 8 9 11 12 12 12 10 11 13 13 11 12 8 8 7
18 19 18 16 16 13 11 12 11 10 12 12 12 15 16 17 18 18 17 16 16 13 16 18 17 12 13 13 11 8 8 10 12 14 12 12 14 8 9 9 10 10 7
18 20 19 19 19 16 16 11 10 13 12 11 11 12 14 18 18 18 18 15 15 14 13 13 14 16 11 9 15 7 6 8 5 3 14 11 5 6 8 4 6 6 5
18 19 19 18 20 18 21 17 14 13 16 11 11 11 13 18 19 18 16 16 15 12 15 14 13 13 11 10 8 10 12 6 4 5 19 12 7 3 6 7 6 2 3
19 19 19 18 19 20 20 21 17 13 12 11 10 13 15 13 18 17 16 18 17 12 14 14 13 13 9 9 9 5 8 7 10 7 8 9 3 4 5 4 1 3 6
18 19 19 20 20 20 19 20 22 23 13 12 10 12 9 3 7 14 16 15 16 14 15 11 11 9 11 11 7 6 5 3 5 6 9 8 8 7 7 7 6 6 7
Wind_Direction
130 133 136 151 162 151 144 149 153 150 150 151 148 149 145 143 136 130 123 114 115 123 124 124 123 122 117 111 104 96 88 84 90 99 100 94 88 78 56 27 337 96 84
137 144 143 153 163 156 150 148 152 151 159 158 158 158 154 150 144 142 137 134 136 133 131 130 128 126 122 116 111 105 100 94 101 130 134 119 100 91 60 40 27 79 74
145 147 158 160 166 164 157 153 157 160 166 166 164 166 165 158 155 152 150 152 148 148 147 145 143 141 136 129 121 114 107 108 139 194 197 179 102 109 89 66 73 84 81
143 153 166 163 168 171 167 162 163 168 172 172 173 172 172 169 163 163 162 163 162 161 160 158 155 152 150 146 140 138 138 147 204 249 238 107 117 130 129 116 109 113 120
153 161 165 162 170 173 176 172 171 172 174 172 174 178 181 179 172 173 172 172 171 170 169 169 164 160 158 156 155 146 154 183 236 256 223 179 138 142 149 159 167 171 145
162 167 145 161 168 176 181 181 178 177 175 173 177 181 183 184 185 182 182 181 180 182 180 177 174 168 168 168 171 176 188 215 254 246 160 123 270 141 155 180 178 140 160
169 171 157 164 173 176 182 185 185 181 177 176 181 186 188 190 186 187 187 190 195 192 189 186 177 175 177 183 190 195 207 235 260 277 201 204 139 148 167 186 194 192 191
174 177 167 171 183 186 184 184 185 183 181 181 184 185 190 192 193 192 193 195 198 202 201 189 182 185 187 194 204 213 224 245 255 254 272 270 132 155 184 197 200 202 203
178 186 165 185 191 194 198 192 186 185 183 185 188 189 192 190 191 195 199 204 210 208 202 190 189 194 199 205 214 222 232 244 268 279 268 240 145 159 194 213 205 205 209
186 189 188 185 192 201 201 199 198 196 192 189 188 190 192 197 204 202 199 207 211 213 214 206 202 207 211 216 222 225 233 246 253 259 262 255 151 167 195 221 220 209 210
201 195 197 189 195 198 203 200 200 204 203 199 200 198 193 213 207 214 213 209 205 214 212 212 213 215 220 230 233 230 227 239 244 237 242 143 163 175 205 225 226 220 213
203 209 201 204 198 200 207 204 201 210 212 211 212 210 216 217 224 215 209 199 197 203 213 217 218 217 222 242 214 215 229 241 246 249 252 158 166 184 213 226 228 227 221
209 206 209 194 203 202 206 203 191 208 205 211 215 212 208 219 223 221 222 191 208 202 219 210 217 226 227 235 243 199 214 226 240 247 249 170 176 193 215 227 230 229 227
236 201 204 206 200 207 213 210 208 197 205 207 206 209 222 203 216 222 211 220 201 210 211 224 210 221 219 233 245 265 249 255 250 243 252 178 185 199 216 229 230 230 229
283 256 197 201 188 201 214 222 212 216 203 207 210 199 207 222 211 210 224 215 224 206 204 211 229 214 217 226 233 236 246 249 252 262 266 188 193 203 214 227 231 230 230
280 276 212 208 199 196 211 219 225 214 221 207 211 210 201 210 222 212 206 219 225 223 214 211 219 224 228 231 224 233 245 243 244 241 251 250 206 207 214 222 235 240 239
287 254 249 207 215 204 211 220 225 227 216 225 212 213 207 203 213 216 212 210 215 217 223 216 225 228 242 233 237 244 240 238 249 256 252 249 250 215 215 218 218 231 239
338 337 258 227 210 219 217 221 227 223 233 217 223 211 214 206 208 213 215 211 214 211 205 221 219 228 231 236 245 250 247 241 240 245 247 252 253 262 209 219 216 217 225
350 354 339 322 248 215 221 233 238 241 227 227 218 216 212 209 205 210 211 215 204 213 212 210 214 229 233 237 246 246 247 250 252 243 242 245 248 255 262 221 217 218 225
359 349 350 347 336 331 235 220 234 243 235 234 228 224 217 209 206 202 211 208 203 205 205 204 216 218 232 247 251 250 245 242 241 248 247 244 246 243 241 252 238 218 219
360 358 350 343 337 328 303 252 237 233 244 233 232 229 221 216 206 208 208 207 205 201 205 199 198 203 234 238 253 256 259 254 252 257 256 249 243 238 233 237 244 260 244
358 354 347 345 341 326 309 300 283 245 236 234 233 230 225 215 211 206 209 209 204 206 202 194 200 189 197 197 221 236 260 246 239 241 237 236 238 235 244 235 244 255 272
3 351 347 346 341 333 319 304 290 288 241 240 232 232 226 219 214 214 206 211 206 209 209 209 213 202 208 195 204 207 228 241 270 269 279 251 221 210 231 237 249 247 252
358 354 344 347 343 340 333 321 298 285 284 243 235 240 229 214 211 209 213 207 218 210 216 215 210 227 238 203 186 224 236 274 273 2 273 196 195 193 231 250 272 272 282
356 353 345 344 349 347 341 328 315 292 289 267 255 255 245 221 200 199 201 215 217 219 218 226 217 215 225 234 194 166 214 243 236 223 262 285 271 233 305 257 38 183 230
352 347 345 345 350 350 344 336 332 324 288 273 243 251 246 125 168 197 204 213 222 218 218 212 220 213 214 221 216 189 189 180 242 201 235 253 274 283 284 279 292 316 301